DELTA 1 DEB, 10644

Orbit data source: Space-Track

DELTA 1 DEB, 10644 is space debris in SSO originally from a launch on Thu, 29 Jul 1976 UTC launched from the Air Force Western Test Range (AFWTR). Debris objects in space refer to the collection of defunct objects orbiting the Earth. Examples of debris include non-operational satellites, rocket bodies, and fragments generated from explosions, collisions, or faulty payload assembly.

Loading next visibility...
Identifier
10644, 1976-077E
Orbit
SSO
Country
Flag of USUS
Related business
Manufacturer
Unknown
Mission
Spacecraft
Bus & Motor
Unknown
Mass
Unknown
Launch date (UTC)
1976-07-29 (49 years ago)
Launch vehicle
Unknown
Launch site
Air Force Western Test Range (AFWTR)
Object type
Payload
Rocket body
Debris
Shape & HBR
Unknown shape, 0.1 m
Radar Cross Section
Small (<0.1 m²)

Expand to show TLE details & history
Last TLE update: 4 days ago

TLE from 4 days ago
0 DELTA 1 DEB
1 10644U 76077E   25288.50200848  .00000042  00000-0  46881-3 0  9990
2 10644 101.3402 256.6918 0105344 144.8671 340.8341 12.61773089263876
Epoch: 2025-10-15T12:02Z
TLE epoch observation values (Epoch: 2025-10-15T12:02:53.532Z)
Latitude
53.24566°
Longitude
-112.80951°
Altitude
1,346.676 km
Speed
7.225 km/s
True Right ascension
06h 08m 45s
True Declination
53° 05' 36"
Sunlit
Object was in daylight at epoch
Visualization orbit readout
Latitude
Unknown
Longitude
Unknown
Altitude
Unknown
Speed
Unknown
Apparent Right ascension
Unknown
Apparent Declination
Unknown
Sunlit
N/A
Visualization observer readout
Local Sidereal Time
15:33:43
Azimuth
Unknown
Elevation
Unknown
Doppler factor
Unknown
Orbital elements
Apogee altitude
1,495.218 km
Perigee altitude
1,331.065 km
Semi-major axis
7,791.279 km
Eccentricity
0.01053
Inclination
101.3402°
RAAN
256.6918°
Arg. of periapsis
144.8671°
True anomaly
340.4328°
Mean anomaly
340.8341°
Eccentric anomaly
340.63395°
Mean motion
3.15595 °/min
Orbital period
114.07 mins
BSTAR
0.00046881
Loading maneuver chart data...
Computing Atmospheric mass density...
Loading historical data...
Loading historical data...
Loading historical data...
Loading historical data...
Loading historical data...
Loading historical data...
Loading historical data...

Documentation

Showing up to 5 results
|